Weather History for Molokai, HI

Change the Weather History Date:

Friday, October 12, 2012

  Actual Average Record
Temperature  
Mean Temperature 44 °F -  
Max Temperature 86 °F 84 °F 89 °F (1984)
Min Temperature 1 °F 70 °F 1 °F (2012)
Degree Days  
Heating Degree Days 22    
Moisture  
Dew Point 66 °F    
Average Humidity 63    
Maximum Humidity 76    
Minimum Humidity 51    
Precipitation  
Precipitation 0.00 in - - ()
Sea Level Pressure  
Sea Level Pressure 30.10 in    
Wind  
Wind Speed 13 mph (NE)    
Max Wind Speed 17 mph    
Max Gust Speed 29 mph    
Visibility 10 miles    
Events      
Averages and records for this station are not official NWS values.
T = Trace of Precipitation, MM = Missing Value Source: NWS Daily Summary

Daily Weather History Graph

Daily Weather History Graph

Search for Another Location

Airport:

Trip Planner

Search our weather history database for the weather conditions in past years. The results will help you decide how hot, cold, wet, or windy it might be!

Date:

Astronomy

Oct. 12, 2012 Rise Set
Actual Time 6:23 AM HST 6:05 PM HST
Civil Twilight 6:00 AM HST 6:28 PM HST
Nautical Twilight 5:34 AM HST 6:54 PM HST
Astronomical Twilight 5:09 AM HST 7:19 PM HST
Moon 3:37 AM HST (10/12) 4:07 PM HST (10/12)
Length of Visible Light 12h 27m
Length of Day
11h 42m
Waning Crescent, 9% of the Moon is Illuminated
Oct 12
Waning Crescent
Oct 15
New
Oct 21
First Quarter
Oct 29
Full
Nov 6
Last Quarter

Hourly Weather History & Observations

Time (HST) Temp. Windchill Dew Point Humidity Pressure Visibility Wind Dir Wind Speed Gust Speed Precip Events Conditions
12:54 AM 75.0 °F - 64.0 °F 69% 30.09 in 10.0 mi NNE 15.0 mph 24.2 mph N/A   Clear
1:54 AM 75.0 °F - 64.0 °F 69% 30.08 in 10.0 mi NE 12.7 mph 21.9 mph N/A   Clear
2:54 AM 75.0 °F - 64.9 °F 71% 30.07 in 10.0 mi NNE 13.8 mph 25.3 mph N/A   Clear
3:54 AM 73.9 °F - 63.0 °F 68% 30.07 in 10.0 mi NNE 9.2 mph - N/A   Clear
4:54 AM 73.9 °F - 64.9 °F 73% 30.08 in 10.0 mi NNE 8.1 mph 19.6 mph N/A   Clear
5:54 AM 73.9 °F - 66.0 °F 76% 30.10 in 10.0 mi NE 9.2 mph - N/A   Clear
6:54 AM 73.9 °F - 64.9 °F 73% 30.11 in 10.0 mi NE 6.9 mph - N/A   Clear
7:54 AM 79.0 °F - 63.0 °F 58% 30.12 in 10.0 mi NE 12.7 mph 18.4 mph N/A   Clear
8:54 AM 75.9 °F - 66.0 °F 71% 30.13 in 10.0 mi NNE 11.5 mph 23.0 mph N/A   Clear
9:54 AM 82.9 °F - 64.9 °F 54% 30.12 in 10.0 mi ENE 17.3 mph 25.3 mph N/A   Clear
10:54 AM 84.2 °F - 64.4 °F 51% 30.12 in 10.0 mi NE 16.1 mph 25.3 mph N/A   Clear
11:54 AM 1.0 °F -16.6 °F - N/A% 30.13 in 10.0 mi NE 12.7 mph 19.6 mph N/A   Clear
12:34 PM 86.0 °F - 66.2 °F 51% 30.07 in 10.0 mi NNE 10.4 mph 19.6 mph N/A   Clear
12:54 PM 86.0 °F - 66.0 °F 51% 30.07 in 10.0 mi North 11.5 mph 19.6 mph N/A   Clear
1:54 PM 86.4 °F - 66.2 °F 51% 30.05 in 10.0 mi NNE 13.8 mph 24.2 mph N/A   Clear
2:54 PM 84.2 °F - 66.2 °F 55% 30.03 in 10.0 mi NE 13.8 mph 25.3 mph N/A   Clear
3:54 PM 84.2 °F - 69.6 °F 61% 30.04 in 10.0 mi NE 16.1 mph 23.0 mph N/A   Clear
4:54 PM 82.4 °F - 67.8 °F 61% 30.06 in 10.0 mi NE 12.7 mph 25.3 mph N/A   Clear
5:54 PM 80.6 °F - 66.7 °F 63% 30.07 in 10.0 mi NE 11.5 mph 23.0 mph N/A   Clear
6:54 PM 77.0 °F - 66.0 °F 69% 30.10 in 10.0 mi NNE 9.2 mph 23.0 mph N/A   Clear
7:54 PM - - - N/A% 30.12 in 10.0 mi NE 15.0 mph 28.8 mph N/A   Clear
8:54 PM - - - N/A% 30.14 in 10.0 mi NE 15.0 mph 25.3 mph N/A   Clear
9:54 PM - - - N/A% 30.15 in 10.0 mi NE 11.5 mph - N/A   Clear
10:54 PM - - - N/A% 30.15 in 10.0 mi NE 10.4 mph - N/A   Partly Cloudy
11:31 PM - - - N/A% 30.15 in 10.0 mi NE 12.7 mph 18.4 mph N/A   Mostly Cloudy
11:54 PM - - - N/A% 30.15 in 10.0 mi NE 12.7 mph 18.4 mph N/A   Overcast